Flag for U.S.A. Weather past 2 weeks in Petersburg, Indiana, U.S.A.

Now
63 °F

Sunny.


Feels Like: 63 °F
Forecast: 45 / 69 °F
Wind: No wind

Location: Huntingburg Airport


UV Index: 5 (Moderate)

Visibility: 10 mi


Pressure: 30.31 "Hg

Humidity: 49%

Dew point: 43 °F

Location of PetersburgLocation

Historic Weather in Petersburg

°F

Petersburg temperature yesterday

Maximum temperature yesterday: 66 °F (at 5:15 PM)
Minimum temperature yesterday: 41 °F (at 5:55 AM)
Average temperature yesterday: 54 °F

Past Weeks' High & Low Weather Summary

 TemperatureHumidityPressure
High79 °F (Apr 12, 3:55 PM)87% (Apr 6, 2:15 AM)30.37 "Hg (Apr 6, 2:15 AM)
Low28 °F (Apr 16, 4:15 AM)30% (Apr 16, 6:55 PM)29.44 "Hg (Apr 7, 2:55 PM)
Average54 °F61%29.99 "Hg
* Reported Apr 3 10:15 AM — Apr 18 10:35 AM, Petersburg, Weather by CustomWeather, © 2014

Note: Actual official high and low records may vary slightly from our data, if they occured in-between our weather recording intervals... More about our weather records

Advertising

Historic Weather Conditions — Data for Previous 24 hours

 ConditionsComfort  
Time TempWeatherWind HumidityBarometerVisibility
10:35 AM
Apr 18
59 °FSunny.No wind51%30.30 "Hg10 mi
10:15 AM57 °FSunny.5 mph59%30.30 "Hg10 mi
9:55 AM55 °FSunny.3 mph63%30.30 "Hg10 mi
9:35 AM54 °FSunny.3 mph63%30.30 "Hg10 mi
9:15 AM50 °FSunny.No wind67%30.30 "Hg10 mi
8:55 AM46 °FSunny.3 mph76%30.29 "Hg10 mi
8:35 AM43 °FSunny.No wind87%30.29 "Hg10 mi
8:15 AM41 °FSunny.No wind81%30.29 "Hg10 mi
7:55 AM43 °FClear.No wind81%30.29 "Hg8 mi
7:35 AM41 °FClear.3 mph81%30.28 "Hg10 mi
7:15 AM43 °FClear.3 mph81%30.28 "Hg10 mi
6:55 AM41 °FClear.No wind81%30.28 "Hg10 mi
6:35 AM43 °FClear.3 mph81%30.27 "Hg10 mi
6:15 AM43 °FClear.3 mph81%30.27 "Hg10 mi
5:55 AM43 °FClear.No wind81%30.27 "Hg10 mi
5:35 AM45 °FClear.No wind76%30.27 "Hg10 mi
5:15 AM43 °FClear.3 mph81%30.27 "Hg10 mi
4:55 AM45 °FClear.5 mph76%30.27 "Hg10 mi
4:35 AM45 °FClear.No wind76%30.27 "Hg10 mi
4:15 AM46 °FClear.No wind71%30.27 "Hg10 mi
3:55 AM46 °FClear.No wind71%30.26 "Hg10 mi
3:35 AM46 °FClear.No wind71%30.26 "Hg8 mi
3:15 AM46 °FClear.No wind71%30.26 "Hg10 mi
2:55 AM46 °FClear.No wind71%30.25 "Hg10 mi
2:35 AM46 °FClear.No wind71%30.26 "Hg10 mi
2:15 AM46 °FClear.No wind71%30.25 "Hg10 mi
1:55 AM48 °FClear.No wind66%30.26 "Hg10 mi
1:35 AM48 °FClear.No wind66%30.26 "Hg10 mi
1:15 AM50 °FClear.No wind62%30.26 "Hg10 mi
12:55 AM48 °FClear.No wind66%30.27 "Hg10 mi
12:35 AM50 °FClear.No wind62%30.27 "Hg10 mi
12:15 AM52 °FClear.No wind58%30.27 "Hg10 mi
11:55 PM
Apr 17
52 °FClear.No wind58%30.27 "Hg10 mi
11:35 PM50 °FClear.No wind62%30.28 "Hg10 mi
11:15 PM52 °FClear.3 mph58%30.28 "Hg10 mi
10:55 PM54 °FClear.No wind54%30.28 "Hg10 mi
10:35 PM54 °FClear.5 mph54%30.28 "Hg10 mi
10:15 PM54 °FClear.6 mph54%30.27 "Hg10 mi
9:55 PM55 °FClear.No wind47%30.26 "Hg10 mi
9:35 PM57 °FClear.No wind44%30.26 "Hg10 mi
9:15 PM57 °FSunny.No wind48%30.26 "Hg10 mi
8:55 PM59 °FSunny.No wind45%30.26 "Hg10 mi
8:35 PM57 °FSunny.3 mph51%30.26 "Hg10 mi
8:15 PM61 °FSunny.5 mph48%30.25 "Hg10 mi
7:55 PM63 °FSunny.7 mph45%30.25 "Hg10 mi
7:35 PM63 °FSunny.6 mph42%30.26 "Hg10 mi
7:15 PM64 °FSunny.9 mph40%30.27 "Hg10 mi
6:55 PM64 °FSunny.7 mph37%30.27 "Hg10 mi
6:35 PM64 °FSunny.10 mph40%30.26 "Hg10 mi
6:15 PM66 °FSunny.7 mph37%30.26 "Hg10 mi
5:55 PM66 °FSunny.10 mph37%30.25 "Hg10 mi
5:35 PM66 °FSunny.9 mph37%30.26 "Hg10 mi
5:15 PM66 °FSunny.12 mph35%30.26 "Hg10 mi
4:55 PM64 °FSunny.8 mph40%30.26 "Hg10 mi
4:35 PM64 °FSunny.10 mph40%30.26 "Hg10 mi
4:15 PM64 °FSunny.9 mph40%30.27 "Hg10 mi
3:55 PM64 °FSunny.6 mph40%30.28 "Hg10 mi
3:35 PM64 °FSunny.9 mph40%30.29 "Hg10 mi
3:15 PM64 °FSunny.8 mph40%30.30 "Hg10 mi
2:55 PM64 °FSunny.9 mph40%30.31 "Hg10 mi
2:35 PM64 °FSunny.12 mph40%30.31 "Hg10 mi
2:15 PM63 °FSunny.9 mph42%30.31 "Hg10 mi
1:55 PM63 °FSunny.14 mph42%30.32 "Hg10 mi
12:55 PM63 °FSunny.13 mph42%30.34 "Hg10 mi
12:35 PM61 °FSunny.16 mph45%30.34 "Hg10 mi
11:55 AM61 °FSunny.18 mph42%30.34 "Hg10 mi
11:35 AM59 °FSunny.16 mph45%30.35 "Hg10 mi
11:15 AM57 °FSunny.20 mph48%30.34 "Hg10 mi
Weather by CustomWeather, © 2014

See weather overview